FW0837 Weather Reports


Display with metric or nautical units.
time (UTC)temp
F
wind
direction
speed
MPH
gust
MPH
rain 1hr
in
rain 24hr
in
rain mn
in
humidity
%
barometer
mb
20260905095540 63 285 1.0 4.0 0.00 0.00 0.00 87 1008.8
20260905095040 63 285 1.0 4.0 0.00 0.00 0.00 87 1008.8
20260905094540 63 285 1.0 4.0 0.00 0.00 0.00 87 1008.7
20260905094039 63 285 1.0 5.0 0.00 0.00 0.00 87 1008.7
20260905093539 63 266 1.0 6.0 0.00 0.00 0.00 87 1008.7
20260905093039 63 266 0.0 6.0 0.00 0.00 0.00 87 1008.7
20260905092539 63 276 2.0 5.0 0.00 0.00 0.00 87 1008.7
20260905092038 63 216 0.0 3.0 0.00 0.00 0.00 87 1008.7
20260905091542 63 216 1.0 3.0 0.00 0.00 0.00 87 1008.6
20260905091037 63 216 0.0 4.0 0.00 0.00 0.00 87 1008.6
20260905090538 63 216 1.0 5.0 0.00 0.00 0.00 87 1008.6
20260905090037 63 224 2.0 5.0 0.00 0.00 0.00 86 1008.5
20260905085539 63 286 1.0 3.0 0.00 0.00 0.00 86 1008.5
20260905085037 63 286 1.0 3.0 0.00 0.00 0.00 86 1008.5
20260905084537 63 286 0.0 4.0 0.00 0.00 0.00 86 1008.4
20260905084037 63 286 1.0 6.0 0.00 0.00 0.00 86 1008.4
20260905083536 63 239 1.0 4.0 0.00 0.00 0.00 86 1008.5
20260905083035 63 234 1.0 4.0 0.00 0.00 0.00 86 1008.4
20260905082534 63 303 1.0 4.0 0.00 0.00 0.00 85 1008.5
20260905082035 63 279 1.0 5.0 0.00 0.00 0.00 85 1008.5
20260905081534 63 307 2.0 5.0 0.00 0.00 0.00 85 1008.5
20260905081034 63 218 1.0 10.0 0.00 0.00 0.00 85 1008.5
20260905080534 63 359 4.0 10.0 0.00 0.00 0.00 85 1008.5
20260905080033 63 359 1.0 6.0 0.00 0.00 0.00 85 1008.5
20260905075534 63 299 1.0 5.0 0.00 0.00 0.00 86 1008.5
20260905075032 63 354 1.0 5.0 0.00 0.00 0.00 86 1008.4
20260905074534 63 316 0.0 6.0 0.00 0.00 0.00 86 1008.5
20260905074033 63 324 1.0 6.0 0.00 0.00 0.00 86 1008.4
20260905073532 63 232 1.0 4.0 0.00 0.00 0.00 86 1008.5
20260905073031 63 233 1.0 4.0 0.00 0.00 0.00 86 1008.6
20260905072531 63 229 0.0 4.0 0.00 0.00 0.00 86 1008.7
20260905072031 63 230 1.0 4.0 0.00 0.00 0.00 86 1008.6
20260905071529 63 224 0.0 4.0 0.00 0.00 0.00 86 1008.7
20260905071028 63 224 1.0 4.0 0.00 0.00 0.00 86 1008.7
20260905070528 63 222 1.0 4.0 0.00 0.00 0.00 86 1008.8
20260905070027 63 219 1.0 3.0 0.00 0.00 0.00 85 1008.9
20260905065526 63 219 1.0 3.0 0.00 0.00 0.00 85 1008.8
20260905065026 63 219 0.0 2.0 0.00 0.00 0.00 85 1008.8
20260905064525 64 219 0.0 3.0 0.00 0.00 0.00 85 1008.9
20260905064027 64 219 1.0 3.0 0.00 0.00 0.00 84 1009.0
20260905063523 64 219 0.0 3.0 0.00 0.00 0.00 84 1009.0
20260905063022 64 201 0.0 3.0 0.00 0.00 0.00 84 1009.0
20260905062521 64 201 1.0 4.0 0.00 0.00 0.00 83 1009.0
20260905062021 64 201 1.0 4.0 0.00 0.00 0.00 83 1009.1
20260905061521 65 239 2.0 4.0 0.00 0.00 0.00 83 1009.1
20260905061020 65 259 1.0 4.0 0.00 0.00 0.00 83 1009.2
20260905060520 65 259 2.0 5.0 0.00 0.00 0.00 83 1009.2
20260905060020 65 228 1.0 5.0 0.00 0.00 0.00 82 1009.2
20260905055519 65 272 2.0 4.0 0.00 0.00 0.00 82 1009.2
20260905055019 65 274 2.0 7.0 0.00 0.00 0.00 83 1009.2
20260905054530 65 274 2.0 7.0 0.00 0.00 0.00 82 1009.2
20260905054019 65 276 2.0 4.0 0.00 0.00 0.00 82 1009.1
20260905053519 65 274 0.0 3.0 0.00 0.00 0.00 82 1009.1
20260905053018 65 274 1.0 3.0 0.00 0.00 0.00 82 1009.1
20260905052517 65 274 1.0 3.0 0.00 0.00 0.00 82 1009.1
20260905052017 66 274 1.0 3.0 0.00 0.00 0.00 81 1009.0
20260905051516 66 274 0.0 4.0 0.00 0.00 0.00 81 1009.2
20260905051016 66 274 1.0 4.0 0.00 0.00 0.00 81 1009.2
20260905050516 66 275 1.0 4.0 0.00 0.00 0.00 81 1009.2
20260905050022 66 276 1.0 5.0 0.00 0.00 0.00 81 1009.2
20260905045515 66 276 1.0 4.0 0.00 0.00 0.00 81 1009.2
20260905045020 66 276 0.0 3.0 0.00 0.00 0.00 81 1008.9
20260905044516 66 277 0.0 3.0 0.00 0.00 0.00 81 1009.0
20260905044015 66 276 0.0 5.0 0.00 0.00 0.00 82 1008.9
20260905043514 65 276 1.0 5.0 0.00 0.00 0.00 82 1009.0
20260905043012 65 235 1.0 6.0 0.00 0.00 0.00 84 1009.0
20260905042511 65 208 2.0 6.0 0.00 0.00 0.00 85 1009.3
20260905042011 64 261 1.0 7.0 0.00 0.00 0.00 85 1009.2
20260905041511 64 243 1.0 5.0 0.00 0.00 0.00 85 1009.2
20260905041014 64 228 0.0 3.0 0.00 0.00 0.00 85 1009.2
20260905040509 64 228 1.0 3.0 0.00 0.00 0.00 84 1009.1
20260905040008 65 228 0.0 2.0 0.00 0.00 0.00 83 1009.1
20260905035507 65 228 0.0 2.0 0.00 0.00 0.00 83 1008.9
20260905035008 65 228 0.0 2.0 0.00 0.00 0.00 82 1009.0
20260905034514 66 228 0.0 1.0 0.00 0.00 0.00 82 1009.1
20260905034007 66 228 0.0 2.0 0.00 0.00 0.00 81 1009.2
20260905033507 66 228 0.0 3.0 0.00 0.00 0.00 81 1009.2
20260905033007 67 234 0.0 2.0 0.00 0.00 0.00 81 1009.0
20260905032506 67 234 0.0 1.0 0.00 0.00 0.00 80 1009.1
20260905032007 67 234 0.0 2.0 0.00 0.00 0.00 80 1009.2
20260905031507 67 235 0.0 4.0 0.00 0.00 0.00 80 1009.2
20260905031006 67 226 0.0 5.0 0.00 0.00 0.00 81 1009.2
20260905030507 66 253 2.0 5.0 0.00 0.00 0.00 81 1009.2
20260905030008 66 243 1.0 4.0 0.00 0.00 0.00 82 1009.2
20260905025506 66 241 0.0 3.0 0.00 0.00 0.00 83 1009.3
20260905025006 66 242 0.0 2.0 0.00 0.00 0.00 82 1009.4
20260905024508 66 242 0.0 4.0 0.00 0.00 0.00 82 1009.3
20260905024006 66 241 1.0 4.0 0.00 0.00 0.00 82 1009.5
20260905023506 66 249 0.0 3.0 0.00 0.00 0.00 82 1009.4
20260905023010 66 253 1.0 3.0 0.00 0.00 0.00 81 1009.4
20260905022505 66 256 0.0 3.0 0.00 0.00 0.00 81 1009.5
20260905022005 66 273 1.0 3.0 0.00 0.00 0.00 81 1009.6
20260905021506 66 273 1.0 2.0 0.00 0.00 0.00 80 1009.6
20260905021005 66 273 0.0 1.0 0.00 0.00 0.00 80 1009.7
20260905020508 66 273 0.0 2.0 0.00 0.00 0.00 80 1009.7
20260905020006 67 274 0.0 2.0 0.00 0.00 0.00 80 1009.7
20260905015504 67 273 0.0 1.0 0.00 0.00 0.00 79 1009.7
20260905015005 67 273 0.0 2.0 0.00 0.00 0.00 79 1009.7
20260905014505 67 273 0.0 3.0 0.00 0.00 0.00 78 1009.8
20260905014004 68 273 0.0 3.0 0.00 0.00 0.00 77 1009.8
20260905013504 68 273 0.0 3.0 0.00 0.00 0.00 76 1009.9
20260905013004 69 274 0.0 3.0 0.00 0.00 0.00 75 1009.8
20260905012504 69 273 1.0 3.0 0.00 0.00 0.00 74 1009.8
20260905012004 70 273 0.0 2.0 0.00 0.00 0.00 72 1009.9
20260905011503 70 273 0.0 2.0 0.00 0.00 0.00 71 1009.8
20260905011006 70 273 1.0 3.0 0.00 0.00 0.00 70 1009.7
20260905010502 70 274 0.0 4.0 0.00 0.00 0.00 70 1009.8
20260905010003 70 274 2.0 4.0 0.00 0.00 0.00 70 1009.8
20260905005503 70 297 0.0 4.0 0.00 0.00 0.00 70 1009.7
20260905005003 70 297 0.0 4.0 0.00 0.00 0.00 70 1009.7
20260905004503 71 297 0.0 4.0 0.00 0.00 0.00 70 1009.8
20260905004002 71 297 1.0 4.0 0.00 0.00 0.00 69 1009.7
20260905003502 71 289 0.0 5.0 0.00 0.00 0.00 69 1009.7
20260905003005 71 288 1.0 5.0 0.00 0.00 0.00 70 1009.8
20260905002503 71 287 1.0 7.0 0.00 0.00 0.00 70 1009.8
20260905002003 71 299 0.0 5.0 0.00 0.00 0.00 70 1009.8
20260905001502 71 295 2.0 6.0 0.00 0.00 0.00 70 1009.8
20260905001002 71 256 0.0 3.0 0.00 0.00 0.00 70 1009.8
20260905000502 71 232 0.0 4.0 0.00 0.00 0.00 71 1009.7
20260905000001 71 232 1.0 4.0 0.00 0.00 0.00 71 1009.7
20260904235501 72 230 1.0 4.0 0.00 0.00 0.00 71 1009.7
20260904235001 72 277 1.0 3.0 0.00 0.00 0.00 70 1009.6
20260904234600 72 278 1.0 3.0 0.00 0.00 0.00 70 1009.5
20260904234100 72 278 1.0 3.0 0.00 0.00 0.00 69 1009.4
20260904233600 73 278 0.0 2.0 0.00 0.00 0.00 69 1009.4
20260904233100 73 278 0.0 3.0 0.00 0.00 0.00 68 1009.4
20260904232600 73 278 0.0 3.0 0.00 0.00 0.00 68 1009.3
20260904232101 74 278 0.0 3.0 0.00 0.00 0.00 67 1009.3
20260904231600 74 278 1.0 3.0 0.00 0.00 0.00 66 1009.1
20260904231058 74 278 0.0 3.0 0.00 0.00 0.00 66 1009.1
20260904230558 75 278 1.0 3.0 0.00 0.00 0.00 66 1009.1
20260904230128 75 278 0.0 2.0 0.00 0.00 0.00 65 1009.1
20260904225600 75 278 0.0 3.0 0.00 0.00 0.00 64 1009.1
20260904225058 76 278 1.0 5.0 0.00 0.00 0.00 65 1009.2
20260904224602 76 277 1.0 5.0 0.00 0.00 0.00 64 1009.1
20260904224058 76 278 0.0 8.0 0.00 0.00 0.00 63 1009.1
20260904223558 76 272 2.0 8.0 0.00 0.00 0.00 63 1009.0
20260904223105 77 314 0.0 3.0 0.00 0.00 0.00 63 1009.0
20260904222558 77 316 0.0 5.0 0.00 0.00 0.00 62 1009.0
20260904222057 77 266 2.0 6.0 0.00 0.00 0.00 62 1008.9
20260904221557 77 243 1.0 4.0 0.00 0.00 0.00 61 1008.9
20260904221057 77 243 1.0 5.0 0.00 0.00 0.00 62 1008.9
20260904220557 76 243 1.0 5.0 0.00 0.00 0.00 62 1008.9
20260904220056 77 250 1.0 5.0 0.00 0.00 0.00 61 1008.9
20260904215557 77 303 1.0 5.0 0.00 0.00 0.00 60 1008.8
20260904215056 77 304 1.0 8.0 0.00 0.00 0.00 60 1008.7
20260904214556 78 301 2.0 8.0 0.00 0.00 0.00 59 1008.8
20260904214055 78 266 1.0 7.0 0.00 0.00 0.00 58 1008.8
20260904213555 79 292 2.0 7.0 0.00 0.00 0.00 57 1008.9
20260904213055 80 225 2.0 13.0 0.00 0.00 0.00 56 1008.9
20260904212555 80 314 2.0 13.0 0.00 0.00 0.00 55 1008.8
20260904212054 80 248 3.0 9.0 0.00 0.00 0.00 55 1008.9
20260904211554 81 286 2.0 11.0 0.00 0.00 0.00 57 1008.9
20260904211053 81 337 3.0 11.0 0.00 0.00 0.00 56 1008.9
20260904210554 81 297 3.0 8.0 0.00 0.00 0.00 56 1008.9
20260904210053 81 298 1.0 6.0 0.00 0.00 0.00 56 1008.8
20260904205553 82 310 3.0 11.0 0.00 0.00 0.00 55 1008.7
20260904205052 82 300 3.0 11.0 0.00 0.00 0.00 57 1008.8
20260904204552 82 282 2.0 9.0 0.00 0.00 0.00 56 1008.8
20260904204052 82 258 2.0 9.0 0.00 0.00 0.00 56 1008.8
20260904203552 81 239 2.0 14.0 0.00 0.00 0.00 57 1008.8
20260904203055 80 316 4.0 14.0 0.00 0.00 0.00 56 1008.9
20260904202550 82 302 2.0 8.0 0.00 0.00 0.00 54 1009.0
20260904202051 82 272 3.0 12.0 0.00 0.00 0.00 54 1009.0
20260904201550 81 237 2.0 12.0 0.00 0.00 0.00 54 1009.0
20260904201049 81 228 4.0 10.0 0.00 0.00 0.00 54 1009.1
20260904200550 83 354 3.0 10.0 0.00 0.00 0.00 52 1009.1
20260904200049 84 249 3.0 7.0 0.00 0.00 0.00 55 1008.9
20260904195550 83 264 2.0 12.0 0.00 0.00 0.00 56 1008.9
20260904195519 83 326 2.0 12.0 0.00 0.00 0.00 56 1008.9
20260904195049 82 339 3.0 12.0 0.00 0.00 0.00 58 1008.9
20260904194550 82 287 5.0 12.0 0.00 0.00 0.00 58 1009.0
20260904194047 83 295 4.0 11.0 0.00 0.00 0.00 56 1008.8
20260904193550 83 283 1.0 11.0 0.00 0.00 0.00 55 1008.8
20260904193047 83 354 2.0 16.0 0.00 0.00 0.00 56 1008.7
20260904192546 85 254 8.0 16.0 0.00 0.00 0.00 51 1008.7
20260904192048 85 294 5.0 13.0 0.00 0.00 0.00 53 1008.8
20260904191545 84 322 4.0 12.0 0.00 0.00 0.00 51 1008.7
20260904191046 84 257 5.0 12.0 0.00 0.00 0.00 51 1008.6
20260904190544 86 80 1.0 9.0 0.00 0.00 0.00 49 1008.7
20260904190043 86 303 3.0 14.0 0.00 0.00 0.00 52 1008.7
20260904185543 85 258 5.0 14.0 0.00 0.00 0.00 49 1008.7
20260904185042 85 56 3.0 12.0 0.00 0.00 0.00 49 1008.8
20260904184543 84 330 4.0 14.0 0.00 0.00 0.00 47 1008.8
20260904184041 86 317 6.0 14.0 0.00 0.00 0.00 51 1008.8
20260904183540 85 277 1.0 10.0 0.00 0.00 0.00 56 1008.8
20260904183039 83 259 4.0 10.0 0.00 0.00 0.00 55 1008.9
20260904182539 83 245 4.0 11.0 0.00 0.00 0.00 54 1008.9
20260904182039 82 266 3.0 14.0 0.00 0.00 0.00 57 1008.8
20260904181539 83 258 6.0 14.0 0.00 0.00 0.00 53 1008.8
20260904181040 84 291 3.0 12.0 0.00 0.00 0.00 57 1008.8
20260904180540 84 284 4.0 11.0 0.00 0.00 0.00 56 1008.8
20260904180037 83 266 3.0 10.0 0.00 0.00 0.00 55 1008.8
20260904175536 84 289 4.0 12.0 0.00 0.00 0.00 56 1008.9
20260904175039 84 155 4.0 12.0 0.00 0.00 0.00 59 1008.9
20260904174535 84 309 2.0 13.0 0.00 0.00 0.00 59 1008.9
20260904174034 82 289 5.0 13.0 0.00 0.00 0.00 58 1008.9
20260904173534 81 245 4.0 10.0 0.00 0.00 0.00 61 1008.9
20260904173033 80 236 4.0 10.0 0.00 0.00 0.00 62 1009.0
20260904172533 80 243 4.0 10.0 0.00 0.00 0.00 60 1009.1
20260904172032 81 314 0.0 6.0 0.00 0.00 0.00 63 1009.0
20260904171531 81 282 2.0 9.0 0.00 0.00 0.00 61 1009.2
20260904171030 82 297 3.0 10.0 0.00 0.00 0.00 60 1009.2
20260904170530 83 266 5.0 10.0 0.00 0.00 0.00 59 1009.4
20260904170029 84 284 2.0 9.0 0.00 0.00 0.00 60 1009.5
20260904165529 83 12 2.0 12.0 0.00 0.00 0.00 64 1009.4
20260904165028 83 226 4.0 13.0 0.00 0.00 0.00 62 1009.4
20260904164528 83 322 4.0 13.0 0.00 0.00 0.00 62 1009.5
20260904164027 83 281 2.0 10.0 0.00 0.00 0.00 63 1009.5
20260904163526 82 320 2.0 10.0 0.00 0.00 0.00 62 1009.3
20260904163025 83 329 4.0 11.0 0.00 0.00 0.00 61 1009.4
20260904162524 83 39 5.0 10.0 0.00 0.00 0.00 60 1009.4
20260904162022 83 325 3.0 9.0 0.00 0.00 0.00 63 1009.4
20260904161521 82 343 1.0 11.0 0.00 0.00 0.00 63 1009.4
20260904161020 82 264 2.0 11.0 0.00 0.00 0.00 64 1009.5
20260904160520 81 277 5.0 11.0 0.00 0.00 0.00 66 1009.6
20260904160019 80 278 4.0 11.0 0.00 0.00 0.00 66 1009.7
20260904155517 80 236 4.0 11.0 0.00 0.00 0.00 66 1009.8
20260904155016 80 255 5.0 10.0 0.00 0.00 0.00 64 1009.7
20260904154515 82 270 3.0 14.0 0.00 0.00 0.00 67 1009.8
20260904154015 80 320 5.0 14.0 0.00 0.00 0.00 67 1009.9
20260904153513 79 271 5.0 11.0 0.00 0.00 0.00 68 1010.0
20260904153014 80 311 4.0 11.0 0.00 0.00 0.00 69 1010.0
20260904152511 79 281 3.0 10.0 0.00 0.00 0.00 70 1010.0
20260904152009 79 336 4.0 10.0 0.00 0.00 0.00 70 1010.1
20260904151508 78 244 2.0 15.0 0.00 0.00 0.00 71 1010.1
20260904151007 78 210 3.0 15.0 0.00 0.00 0.00 73 1010.2
20260904150506 77 289 4.0 12.0 0.00 0.00 0.00 73 1010.2
20260904150011 78 220 4.0 12.0 0.00 0.00 0.00 73 1010.1
20260904145504 78 244 4.0 13.0 0.00 0.00 0.00 73 1010.2
20260904145002 77 237 4.0 13.0 0.00 0.00 0.00 74 1010.2
20260904144501 77 303 2.0 9.0 0.00 0.00 0.00 76 1010.3
20260904144059 77 280 2.0 10.0 0.00 0.00 0.00 77 1010.3
20260904143558 77 246 3.0 10.0 0.00 0.00 0.00 77 1010.4
20260904143057 77 250 3.0 10.0 0.00 0.00 0.00 77 1010.5
20260904142555 76 329 1.0 4.0 0.00 0.00 0.00 82 1010.5
20260904142054 75 328 1.0 8.0 0.00 0.00 0.00 82 1010.5
20260904141555 74 332 1.0 10.0 0.00 0.00 0.00 84 1010.6
20260904141050 73 280 4.0 10.0 0.00 0.00 0.00 85 1010.5
20260904140549 73 252 3.0 9.0 0.00 0.00 0.00 86 1010.5
20260904135551 71 225 3.0 6.0 0.00 0.00 0.00 89 1010.5
20260904135046 71 337 2.0 6.0 0.00 0.00 0.00 91 1010.5
20260904134548 70 239 2.0 5.0 0.00 0.00 0.00 92 1010.5
20260904134043 69 233 1.0 5.0 0.00 0.00 0.00 92 1010.5
20260904133542 69 232 2.0 5.0 0.00 0.00 0.00 93 1010.5
20260904133042 69 233 1.0 6.0 0.00 0.00 0.00 94 1010.5
20260904132540 68 231 2.0 6.0 0.00 0.00 0.00 94 1010.6
20260904132039 68 219 2.0 6.0 0.00 0.00 0.00 94 1010.6
20260904131536 68 287 1.0 7.0 0.00 0.00 0.00 95 1010.6
20260904131036 67 283 3.0 7.0 0.00 0.00 0.00 95 1010.5
20260904130538 67 243 1.0 4.0 0.00 0.00 0.00 94 1010.5
20260904130044 67 243 0.0 3.0 0.00 0.00 0.00 94 1010.4
20260904125532 67 243 1.0 4.0 0.00 0.00 0.00 95 1010.5
20260904125032 66 243 1.0 4.0 0.00 0.00 0.00 94 1010.6
20260904124530 66 242 2.0 4.0 0.00 0.00 0.00 94 1010.6
20260904124036 66 243 1.0 3.0 0.00 0.00 0.00 95 1010.6
20260904123533 66 242 0.0 4.0 0.00 0.00 0.00 94 1010.5
20260904123029 66 242 1.0 4.0 0.00 0.00 0.00 94 1010.6
20260904122529 66 242 1.0 3.0 0.00 0.00 0.00 94 1010.6
20260904122028 66 242 0.0 3.0 0.00 0.00 0.00 94 1010.6
20260904121528 66 242 0.0 4.0 0.00 0.00 0.00 94 1010.5
20260904121026 66 243 2.0 4.0 0.00 0.00 0.00 94 1010.4
20260904120526 65 242 2.0 5.0 0.00 0.00 0.00 94 1010.5
20260904120035 66 241 2.0 5.0 0.00 0.00 0.00 94 1010.4
20260904115525 66 256 2.0 4.0 0.00 0.01 0.00 95 1010.5
20260904115024 65 241 0.0 4.0 0.00 0.01 0.00 94 1010.4
20260904114526 65 243 2.0 7.0 0.00 0.01 0.00 94 1010.4
20260904114026 65 229 2.0 7.0 0.00 0.01 0.00 94 1010.6
20260904113523 65 250 2.0 4.0 0.00 0.01 0.00 94 1010.5
20260904113022 65 270 1.0 5.0 0.00 0.01 0.00 94 1010.5
20260904112520 65 224 0.0 3.0 0.00 0.01 0.00 94 1010.5
20260904112019 65 224 1.0 5.0 0.00 0.01 0.00 94 1010.5
20260904111519 65 224 2.0 5.0 0.00 0.01 0.00 94 1010.4
20260904111018 65 211 1.0 3.0 0.00 0.01 0.00 94 1010.4
20260904110517 65 212 1.0 3.0 0.00 0.01 0.00 94 1010.4
20260904110016 65 210 0.0 2.0 0.00 0.01 0.00 94 1010.3
20260904105517 64 211 0.0 2.0 0.00 0.06 0.00 94 1010.3
20260904105016 64 210 0.0 2.0 0.00 0.06 0.00 94 1010.3
20260904104523 64 210 0.0 3.0 0.00 0.06 0.00 94 1010.2
20260904104014 64 210 1.0 3.0 0.00 0.06 0.00 94 1010.2
20260904103513 64 210 0.0 1.0 0.00 0.06 0.00 94 1010.1
20260904103013 64 211 0.0 2.0 0.00 0.06 0.00 94 1010.1
20260904102512 64 210 0.0 2.0 0.00 0.06 0.00 94 1010.1
20260904102012 64 211 0.0 3.0 0.00 0.06 0.00 94 1010.3
20260904101512 64 211 0.0 3.0 0.00 0.06 0.00 94 1010.2
20260904101011 64 210 0.0 3.0 0.00 0.06 0.00 94 1010.1
20260904100511 64 211 0.0 2.0 0.00 0.06 0.00 94 1010.1
20260904100011 64 211 0.0 1.0 0.00 0.06 0.00 94 1010.1